Location: Spaichingen
(48.0400°N, 8.4300°E)
Time: 02:53:01
(UTC+02:00)

Tiangong 2 - Pass Details

Date: 19 May 2019
Orbit: 376 x 389 km, 42.8° (Epoch: 16 June)

Event Time Altitude Azimuth Distance (km) Brightness Sun altitude
Rises 22:21:01 0° 217° (SW) 2,225 4.8 -10.9°
Reaches altitude 10° 22:23:45 10° 191° (S) 1,376 3.5 -11.2°
Enters shadow 22:24:25 12° 179° (S) 1,245 3.2 -11.3°
